Location: Poughquag
(41.6090°N, 73.6820°W)
Time: 14:31:23
(UTC-05:00)

ISS - Visible Passes

Search period start: 19 November 2017 00:00
Search period end: 29 November 2017 00:00
Orbit: 402 x 407 km, 51.6° (Epoch: 20 November)

Date Brightness Start Highest point End Pass type
(mag) Time Alt. Az. Time Alt. Az. Time Alt. Az.
19 Nov -1.7 04:52:26 18° S 04:52:26 18° S 04:53:37 10° SSE visible
25 Nov -1.5 17:51:46 10° SSE 17:52:54 13° SE 17:52:54 13° SE visible
26 Nov -2.1 18:33:57 10° SW 18:35:43 29° SSW 18:35:43 29° SSW visible
27 Nov -2.8 17:41:59 10° SSW 17:44:55 31° SE 17:45:46 26° ESE visible
27 Nov -0.2 19:18:19 10° W 19:18:26 11° W 19:18:26 11° W visible
28 Nov -3.0 18:25:39 10° WSW 18:28:24 50° WNW 18:28:24 50° WNW visible
